TimeEDT,TemperatureF,Dew PointF,Humidity,Sea Level PressureIn,VisibilityMPH,Wind Direction,Wind SpeedMPH,Gust SpeedMPH,PrecipitationIn,Events,Conditions,WindDirDegrees,DateUTC
12:53 AM,57.9,48.9,72,30.02,10.0,Calm,Calm,-,N/A,,Overcast,0,2013-04-08 04:53:00
1:53 AM,57.9,48.9,72,30.03,10.0,SSE,4.6,-,N/A,,Mostly Cloudy,160,2013-04-08 05:53:00
2:53 AM,55.9,48.9,77,30.03,10.0,Calm,Calm,-,N/A,,Clear,0,2013-04-08 06:53:00
3:53 AM,55.0,48.0,77,30.02,10.0,Calm,Calm,-,N/A,,Clear,0,2013-04-08 07:53:00
4:53 AM,51.1,46.9,86,30.02,8.0,Calm,Calm,-,N/A,,Scattered Clouds,0,2013-04-08 08:53:00
5:53 AM,50.0,46.9,89,30.02,10.0,Calm,Calm,-,N/A,,Clear,0,2013-04-08 09:53:00
6:53 AM,48.0,45.0,89,30.03,10.0,ESE,3.5,-,N/A,,Clear,120,2013-04-08 10:53:00
7:53 AM,48.9,46.9,93,30.05,10.0,ESE,3.5,-,N/A,,Partly Cloudy,120,2013-04-08 11:53:00
8:53 AM,60.1,44.1,55,30.04,10.0,South,8.1,-,N/A,,Scattered Clouds,170,2013-04-08 12:53:00
9:53 AM,66.0,42.1,42,30.03,10.0,South,9.2,-,N/A,,Clear,190,2013-04-08 13:53:00
10:53 AM,69.1,42.1,38,30.03,10.0,South,10.4,-,N/A,,Partly Cloudy,180,2013-04-08 14:53:00
11:53 AM,71.1,44.1,38,30.02,10.0,SW,11.5,18.4,N/A,,Mostly Cloudy,220,2013-04-08 15:53:00
12:53 PM,73.0,45.0,37,29.99,10.0,SSW,21.9,31.1,N/A,,Mostly Cloudy,200,2013-04-08 16:53:00
1:53 PM,72.0,45.0,38,29.97,10.0,SSW,15.0,25.3,N/A,,Overcast,210,2013-04-08 17:53:00
2:53 PM,73.0,46.0,38,29.98,10.0,WSW,12.7,33.4,N/A,,Mostly Cloudy,250,2013-04-08 18:53:00
3:53 PM,73.9,46.0,37,29.95,10.0,SW,12.7,23.0,N/A,,Mostly Cloudy,220,2013-04-08 19:53:00
4:53 PM,73.9,46.0,37,29.94,10.0,SSW,20.7,27.6,N/A,,Mostly Cloudy,200,2013-04-08 20:53:00
5:53 PM,73.9,46.9,38,29.94,10.0,South,13.8,18.4,N/A,,Overcast,190,2013-04-08 21:53:00
6:53 PM,73.9,46.9,38,29.95,10.0,SSW,8.1,-,N/A,,Partly Cloudy,200,2013-04-08 22:53:00
7:53 PM,73.0,46.0,38,29.96,10.0,SW,8.1,-,N/A,,Clear,230,2013-04-08 23:53:00
8:53 PM,71.1,46.9,42,29.97,10.0,SW,3.5,-,N/A,,Scattered Clouds,230,2013-04-09 00:53:00
9:53 PM,70.0,48.0,46,30.00,10.0,West,6.9,-,N/A,,Scattered Clouds,260,2013-04-09 01:53:00
10:53 PM,68.0,46.9,47,30.01,10.0,WSW,4.6,-,N/A,,Scattered Clouds,240,2013-04-09 02:53:00
11:53 PM,66.9,46.9,49,30.02,10.0,SW,4.6,-,N/A,,Clear,230,2013-04-09 03:53:00